Voltar ao catálogo

DELTA 1 DEB

AtivoSSO
NORAD 9042·DEBRIS·🇺🇸 United States

Lançado Jan 22, 1975 de Vandenberg Space Force Base

Loading…

Próximas Passagens (próximas 24 horas)

TLE

AtualizadoSource: Space-Track

Época: Sep 14, 2026, 07:08 UTC

1 09042U 75004DG  26257.29785418  .00000156  00000-0  58727-4 0  9992
2 09042  97.9909 199.8332 0061689 148.8336 211.6537 14.41870564652499

Acompanhe DELTA 1 DEB em tempo real com AllMySat

Download on the App Store